Location: Saratoga Springs
(43.0831°N, 73.7850°W)
Time: 09:32:59
(UTC-04:00)

Vanguard 2 Rocket - Pass Details

Date: 14 April 2024
Orbit: 556 x 3304 km, 32.9° (Epoch: 24 May)

Event Time Altitude Azimuth Distance (km) Brightness Sun altitude
Rises 02:56:17 0° 263° (W) 7,288 - -30.5°
Reaches altitude 10° 03:01:24 10° 261° (W) 6,231 - -30.0°
Exits shadow 03:11:01 34° 248° (WSW) 4,266 9.8 -28.9°
Maximum altitude 03:20:01 57° 190° (S) 3,007 9.1 -27.9°
Drops below altitude 10° 03:32:18 10° 116° (ESE) 4,280 10.5 -26.3°
Sets 03:35:08 0° 112° (ESE) 4,964 11.0 -26.0°
